Date String (YYYY-MM-DD hh:mm:ss) UTC,Instrument flags,Ambient pressure (hPa),Sample flow (lpm),Bypass flow (lpm),Sample temperature (°C),Ambient temperature (°C),ASC tube jacket temperature (°C),LED temperature (°C),Box temperature (°C),Sample RH (%),Span deviation,Mass concentration (μg/m³),Mass concentration (μg/m³),Mass concentration (μg/m³)
DateTimeUTC,F1_M11,P_M11,Q1_M11,Q2_M11,T1_M11,T2_M11,T3_M11,T4_M11,T5_M11,U1_M11,ZSPAN_M11,X0_M11,X2_M11,X1_M11
2021-11-12 09:00:00,,0830.6,4.99,0.00,22.5,21.7,00.0,31.6,24.3,11.5,0000.0,0007.92,0002.83,0001.66
2021-11-12 09:01:00,,0830.5,5.01,0.00,22.5,21.7,00.0,31.6,24.2,11.5,0000.0,0007.85,0002.79,0001.66
2021-11-12 09:02:00,,0830.6,4.98,0.00,22.5,21.6,00.0,31.6,24.2,11.5,0000.0,0007.59,0002.76,0001.65
2021-11-12 09:03:00,,0830.6,5.00,0.00,22.5,21.6,00.0,31.6,24.2,11.6,0000.0,0007.71,0002.72,0001.64
2021-11-12 09:04:00,,0830.5,4.99,0.00,22.4,21.6,00.0,31.6,24.2,11.6,0000.0,0007.85,0002.75,0001.64
2021-11-12 09:05:00,,0830.5,5.01,0.00,22.4,21.6,00.0,31.6,24.1,11.7,0000.0,0007.40,0002.73,0001.64
2021-11-12 09:06:00,,0830.5,5.01,0.00,22.3,21.6,00.0,31.5,24.1,11.7,0000.0,0006.87,0002.68,0001.64
2021-11-12 09:07:00,,0830.5,5.00,0.00,22.3,21.6,00.0,31.5,24.1,11.8,0000.0,0006.94,0002.71,0001.65
2021-11-12 09:08:00,,0830.5,4.99,0.00,22.3,21.6,00.0,31.5,24.1,11.8,0000.0,0006.80,0002.70,0001.68
2021-11-12 09:09:00,,0830.5,5.01,0.00,22.3,21.5,00.0,31.5,24.0,11.8,0000.0,0006.35,0002.70,0001.69
2021-11-12 09:10:00,,0830.4,5.00,0.00,22.3,21.5,00.0,31.5,24.0,11.9,0000.0,0006.20,0002.64,0001.69
2021-11-12 09:11:00,,0830.5,5.00,0.00,22.3,21.5,00.0,31.4,24.0,11.9,0000.0,0006.59,0002.58,0001.70
2021-11-12 09:12:00,,0830.6,5.00,0.00,22.3,21.4,00.0,31.4,24.0,12.0,0000.0,0007.33,0002.62,0001.71
2021-11-12 09:13:00,,0830.6,5.01,0.00,22.2,21.4,00.0,31.4,24.0,12.0,0000.0,0007.68,0002.66,0001.72
2021-11-12 09:14:00,,0830.6,4.99,0.00,22.2,21.4,00.0,31.4,23.9,12.0,0000.0,0007.56,0002.70,0001.74
2021-11-12 09:15:00,,0830.6,5.01,0.00,22.2,21.4,00.0,31.4,23.9,12.1,0000.0,0007.50,0002.72,0001.76
2021-11-12 09:16:00,,0830.6,4.98,0.00,22.1,21.3,00.0,31.4,23.9,12.1,0000.0,0007.81,0002.79,0001.77
2021-11-12 09:17:00,,0830.6,5.01,0.00,22.1,21.3,00.0,31.3,23.8,12.1,0000.0,0008.11,0002.81,0001.77
2021-11-12 09:18:00,,0830.6,5.00,0.00,22.1,21.3,00.0,31.3,23.8,12.1,0000.0,0008.64,0002.75,0001.76
2021-11-12 09:19:00,,0830.7,5.00,0.00,22.1,21.3,00.0,31.3,23.8,12.1,0000.0,0009.34,0002.73,0001.75
2021-11-12 09:20:00,,0830.6,5.00,0.00,22.1,21.3,00.0,31.3,23.8,12.1,0000.0,0009.25,0002.71,0001.76
2021-11-12 09:21:00,,0830.6,5.00,0.00,22.1,21.3,00.0,31.3,23.9,12.2,0000.0,0009.14,0002.69,0001.76
2021-11-12 09:22:00,,0830.6,4.99,0.00,22.1,21.3,00.0,31.3,23.8,12.3,0000.0,0008.93,0002.74,0001.77
2021-11-12 09:23:00,,0830.6,5.01,0.00,22.1,21.3,00.0,31.2,23.8,12.3,0000.0,0008.77,0002.75,0001.78
2021-11-12 09:24:00,,0830.6,4.99,0.00,22.0,21.2,00.0,31.2,23.7,12.3,0000.0,0008.38,0002.72,0001.77
2021-11-12 09:25:00,,0830.6,4.99,0.00,22.0,21.2,00.0,31.2,23.7,12.2,0000.0,0008.86,0002.72,0001.77
2021-11-12 09:26:00,,0830.6,5.00,0.00,22.0,21.2,00.0,31.2,23.7,12.2,0000.0,0009.60,0002.71,0001.77
2021-11-12 09:27:00,,0830.6,5.00,0.00,22.0,21.2,00.0,31.2,23.8,12.1,0000.0,0009.42,0002.66,0001.76
2021-11-12 09:28:00,,0830.6,4.98,0.00,22.0,21.2,00.0,31.2,23.8,12.1,0000.0,0010.48,0002.61,0001.74
2021-11-12 09:29:00,,0830.6,5.01,0.00,22.0,21.2,00.0,31.2,23.7,12.0,0000.0,0010.17,0002.65,0001.74
2021-11-12 09:30:00,,0830.6,4.99,0.00,21.9,21.2,00.0,31.1,23.6,12.0,0000.0,0009.73,0002.65,0001.74
2021-11-12 09:31:00,,0830.6,5.01,0.00,21.9,21.1,00.0,31.1,23.6,12.0,0000.0,0010.06,0002.67,0001.73
2021-11-12 09:32:00,,0830.5,4.99,0.00,21.9,21.1,00.0,31.1,23.5,12.0,0000.0,0010.90,0002.72,0001.75
2021-11-12 09:33:00,,0830.5,5.02,0.00,21.8,21.0,00.0,31.1,23.5,12.0,0000.0,0010.78,0002.70,0001.75
2021-11-12 09:34:00,,0830.6,4.99,0.00,21.8,21.0,00.0,31.1,23.5,12.0,0000.0,0010.65,0002.68,0001.74
2021-11-12 09:35:00,,0830.8,5.00,0.00,21.8,21.0,00.0,31.0,23.5,12.0,0000.0,0010.70,0002.67,0001.74
2021-11-12 09:36:00,,0830.8,4.99,0.00,21.8,21.1,00.0,31.0,23.6,12.1,0000.0,0010.50,0002.64,0001.73
2021-11-12 09:37:00,,0830.7,4.99,0.00,21.9,21.1,00.0,31.0,23.6,12.1,0000.0,0010.63,0002.71,0001.74
2021-11-12 09:38:00,,0830.8,5.01,0.00,21.9,21.1,00.0,31.0,23.6,12.1,0000.0,0010.99,0002.74,0001.74
2021-11-12 09:39:00,,0830.7,4.99,0.00,21.8,21.1,00.0,31.0,23.6,12.1,0000.0,0009.85,0002.78,0001.76
2021-11-12 09:40:00,,0830.6,5.01,0.00,21.9,21.1,00.0,31.0,23.6,12.1,0000.0,0009.62,0002.74,0001.77
2021-11-12 09:41:00,,0830.6,5.00,0.00,21.9,21.1,00.0,31.0,23.6,12.0,0000.0,0010.07,0002.72,0001.77
2021-11-12 09:42:00,,0830.6,5.00,0.00,21.8,21.1,00.0,31.0,23.6,12.0,0000.0,0010.10,0002.70,0001.77
2021-11-12 09:43:00,,0830.7,5.00,0.00,21.8,21.1,00.0,31.0,23.5,12.0,0000.0,0009.20,0002.67,0001.77
2021-11-12 09:44:00,,0830.8,4.99,0.00,21.8,21.0,00.0,30.9,23.5,12.0,0000.0,0009.05,0002.58,0001.75
2021-11-12 09:45:00,,0830.8,5.01,0.00,21.8,21.0,00.0,30.9,23.5,12.1,0000.0,0009.89,0002.59,0001.74
2021-11-12 09:46:00,,0830.8,5.00,0.00,21.8,21.1,00.0,30.9,23.5,12.1,0000.0,0009.95,0002.62,0001.75
2021-11-12 09:47:00,,0830.7,4.99,0.00,21.8,21.1,00.0,30.9,23.5,12.1,0000.0,0010.16,0002.63,0001.74
2021-11-12 09:48:00,,0830.6,5.00,0.00,21.8,21.0,00.0,30.9,23.5,12.1,0000.0,0009.64,0002.59,0001.73
2021-11-12 09:49:00,,0830.7,5.00,0.00,21.7,21.0,00.0,30.9,23.4,12.1,0000.0,0009.20,0002.61,0001.72
2021-11-12 09:50:00,,0830.8,5.01,0.00,21.7,21.0,00.0,30.9,23.4,12.2,0000.0,0009.37,0002.68,0001.72
2021-11-12 09:51:00,,0830.8,5.00,0.00,21.7,20.9,00.0,30.9,23.4,12.2,0000.0,0009.82,0002.70,0001.71
2021-11-12 09:52:00,,0830.8,5.00,0.00,21.6,20.9,00.0,30.8,23.3,12.2,0000.0,0009.77,0002.76,0001.72
2021-11-12 09:53:00,,0830.8,5.01,0.00,21.6,20.9,00.0,30.8,23.3,12.2,0000.0,0009.58,0002.78,0001.73
2021-11-12 09:54:00,,0830.7,4.99,0.00,21.6,20.9,00.0,30.8,23.3,12.3,0000.0,0009.66,0002.79,0001.71
2021-11-12 09:55:00,,0830.7,4.99,0.00,21.6,20.9,00.0,30.8,23.3,12.4,0000.0,0009.85,0002.85,0001.73
2021-11-12 09:56:00,,0830.6,5.01,0.00,21.6,20.9,00.0,30.8,23.3,12.4,0000.0,0008.96,0002.84,0001.75
2021-11-12 09:57:00,,0830.7,5.00,0.00,21.6,20.8,00.0,30.8,23.2,12.4,0000.0,0008.88,0002.80,0001.75
2021-11-12 09:58:00,,0830.6,5.00,0.00,21.5,20.8,00.0,30.7,23.2,12.4,0000.0,0008.24,0002.78,0001.76
2021-11-12 09:59:00,,0830.6,5.00,0.00,21.5,20.8,00.0,30.7,23.2,12.4,0000.0,0008.18,0002.75,0001.76
